When you browse on this site, cookies collect data to enhance your experience and personalize the content and advertising you see.
Visit our Privacy Policy to learn more. By continuing to use the site, you agree to this use of cookies and data.
  • In Österreich
  • Länderverzeichnis
  • Für 7 Tage
  • Wassertemperatur
  • Satellitenkarten
  • Wetterkarte
  • News
  • Widgets
  • user-avatar
    Anmelden

    Stündliche Wetter Tottori

    Heute, 19 Februar, Dienstag

    Zeit Temperatur Niederschläge Wind Luftdruck Luftfeuchtigkeit
    00:00 +4°C° 0 mm 2 m/S 736 mmHg 56%
    01:00 +4°C° 0 mm 2 m/S 735 mmHg 59%
    02:00 +4°C° 0 mm 2 m/S 735 mmHg 62%
    03:00 +4°C° 0 mm 2 m/S 735 mmHg 64%
    04:00 +4°C° 0.7 mm 2 m/S 734 mmHg 72%
    05:00 +4°C° 0.7 mm 2 m/S 734 mmHg 79%
    06:00 +4°C° 0.7 mm 2 m/S 734 mmHg 86%
    07:00 +5°C° 1.9 mm 2 m/S 733 mmHg 89%
    08:00 +6°C° 1.9 mm 2 m/S 733 mmHg 92%
    09:00 +5°C° 0 mm 4 m/S 733 mmHg 93%
    10:00 +6°C° 1.9 mm 4 m/S 732 mmHg 93%
    11:00 +7°C° 1.9 mm 4 m/S 731 mmHg 94%
    12:00 +8°C° 1.9 mm 4 m/S 730 mmHg 94%
    13:00 +10°C° 1.4 mm 4 m/S 729 mmHg 94%
    14:00 +10°C° 1.4 mm 5 m/S 728 mmHg 93%
    15:00 +12°C° 0 mm 5 m/S 727 mmHg 93%
    16:00 +12°C° 0.4 mm 4 m/S 727 mmHg 94%
    17:00 +12°C° 0.4 mm 4 m/S 727 mmHg 95%
    18:00 +12°C° 0.4 mm 3 m/S 727 mmHg 95%
    19:00 +12°C° 0.1 mm 2 m/S 728 mmHg 96%
    20:00 +12°C° 0.1 mm 2 m/S 728 mmHg 97%
    21:00 +10°C° 0.1 mm 2 m/S 729 mmHg 98%
    22:00 +10°C° 0 mm 2 m/S 729 mmHg 97%
    23:00 +10°C° 0 mm 2 m/S 730 mmHg 97%

    Morgen, 20 Februar, Mittwoch

    Zeit Temperatur Niederschläge Wind Luftdruck Luftfeuchtigkeit
    00:00 +10°C° 0 mm 2 m/S 730 mmHg 97%
    01:00 +9°C° 0.1 mm 2 m/S 730 mmHg 97%
    02:00 +9°C° 0.1 mm 1 m/S 730 mmHg 97%
    03:00 +9°C° 0.1 mm 1 m/S 730 mmHg 97%
    04:00 +9°C° 0.1 mm 1 m/S 730 mmHg 96%
    05:00 +9°C° 0.1 mm 1 m/S 731 mmHg 96%
    06:00 +8°C° 0.1 mm 2 m/S 731 mmHg 96%
    07:00 +8°C° 0.1 mm 2 m/S 731 mmHg 90%
    08:00 +9°C° 0.1 mm 3 m/S 731 mmHg 84%
    09:00 +9°C° 0.1 mm 3 m/S 732 mmHg 79%
    10:00 +9°C° 0 mm 3 m/S 732 mmHg 76%
    11:00 +9°C° 0 mm 3 m/S 732 mmHg 74%
    12:00 +8°C° 0 mm 4 m/S 732 mmHg 72%
    13:00 +8°C° 0 mm 4 m/S 732 mmHg 70%
    14:00 +8°C° 0 mm 4 m/S 732 mmHg 67%
    15:00 +8°C° 0 mm 4 m/S 732 mmHg 65%
    16:00 +7°C° 0 mm 4 m/S 732 mmHg 70%
    17:00 +5°C° 0 mm 4 m/S 732 mmHg 74%
    18:00 +4°C° 0 mm 4 m/S 733 mmHg 78%
    19:00 +4°C° 0 mm 4 m/S 733 mmHg 79%
    20:00 +3°C° 0 mm 4 m/S 734 mmHg 80%
    21:00 +3°C° 0 mm 3 m/S 734 mmHg 80%
    22:00 +2°C° 0 mm 3 m/S 735 mmHg 81%
    23:00 +2°C° 0 mm 3 m/S 735 mmHg 81%

    übermorgen, 21 Februar, Donnerstag

    Zeit Temperatur Niederschläge Wind Luftdruck Luftfeuchtigkeit
    00:00 +2°C° 0 mm 3 m/S 735 mmHg 82%
    01:00 +2°C° 0 mm 3 m/S 735 mmHg 82%
    02:00 +2°C° 0 mm 3 m/S 735 mmHg 82%
    03:00 +2°C° 0 mm 3 m/S 735 mmHg 82%
    04:00 +2°C° 0 mm 3 m/S 735 mmHg 82%
    05:00 +2°C° 0 mm 2 m/S 735 mmHg 83%
    06:00 +2°C° 0 mm 2 m/S 735 mmHg 83%
    07:00 +2°C° 0 mm 3 m/S 736 mmHg 78%
    08:00 +3°C° 0 mm 3 m/S 736 mmHg 73%
    09:00 +3°C° 0 mm 3 m/S 736 mmHg 69%
    10:00 +4°C° 0 mm 3 m/S 736 mmHg 66%
    11:00 +5°C° 0 mm 3 m/S 736 mmHg 63%
    12:00 +5°C° 0 mm 3 m/S 736 mmHg 59%
    13:00 +5°C° 0 mm 3 m/S 736 mmHg 60%
    14:00 +5°C° 0 mm 3 m/S 736 mmHg 60%
    15:00 +7°C° 0 mm 3 m/S 735 mmHg 60%
    16:00 +4°C° 0 mm 3 m/S 736 mmHg 66%
    17:00 +4°C° 0 mm 2 m/S 736 mmHg 72%
    18:00 +3°C° 0 mm 2 m/S 736 mmHg 79%
    19:00 +2°C° 0 mm 2 m/S 736 mmHg 82%
    20:00 +2°C° 0 mm 2 m/S 736 mmHg 84%
    21:00 +2°C° 0 mm 1 m/S 736 mmHg 87%
    22:00 +2°C° 0 mm 1 m/S 736 mmHg 88%
    23:00 +2°C° 0 mm 1 m/S 736 mmHg 88%

    22 Februar, Freitag

    Zeit Temperatur Niederschläge Wind Luftdruck Luftfeuchtigkeit
    00:00 +2°C° 0 mm 1 m/S 736 mmHg 88%
    01:00 +2°C° 0 mm 1 m/S 736 mmHg 87%
    02:00 +2°C° 0 mm 1 m/S 735 mmHg 86%
    03:00 +2°C° 0 mm 1 m/S 735 mmHg 85%
    04:00 +2°C° 0 mm 1 m/S 735 mmHg 84%
    05:00 +2°C° 0 mm 1 m/S 735 mmHg 83%
    06:00 +2°C° 0 mm 1 m/S 734 mmHg 82%
    07:00 +3°C° 0 mm 1 m/S 735 mmHg 74%
    08:00 +5°C° 0 mm 1 m/S 735 mmHg 67%
    09:00 +7°C° 0 mm 1 m/S 735 mmHg 60%
    10:00 +8°C° 0 mm 1 m/S 735 mmHg 55%
    11:00 +9°C° 0 mm 1 m/S 734 mmHg 49%
    12:00 +10°C° 0 mm 1 m/S 734 mmHg 44%
    13:00 +10°C° 0 mm 1 m/S 733 mmHg 45%
    14:00 +10°C° 0 mm 1 m/S 732 mmHg 46%
    15:00 +10°C° 0 mm 1 m/S 731 mmHg 47%
    16:00 +9°C° 0 mm 1 m/S 731 mmHg 54%
    17:00 +8°C° 0 mm 1 m/S 730 mmHg 60%
    18:00 +6°C° 0 mm 1 m/S 730 mmHg 66%
    19:00 +6°C° 0 mm 1 m/S 730 mmHg 66%
    20:00 +6°C° 0 mm 1 m/S 730 mmHg 67%
    21:00 +6°C° 0 mm 1 m/S 730 mmHg 67%
    22:00 +5°C° 0.3 mm 1 m/S 729 mmHg 69%
    23:00 +5°C° 0.3 mm 1 m/S 729 mmHg 71%

    23 Februar, Samstag

    Zeit Temperatur Niederschläge Wind Luftdruck Luftfeuchtigkeit
    00:00 +4°C° 0.3 mm 0 m/S 728 mmHg 72%
    01:00 +5°C° 0.5 mm 1 m/S 728 mmHg 76%
    02:00 +4°C° 0.5 mm 2 m/S 728 mmHg 80%
    03:00 +4°C° 0.5 mm 2 m/S 727 mmHg 84%
    04:00 +4°C° 0.2 mm 2 m/S 727 mmHg 86%
    05:00 +3°C° 0.2 mm 3 m/S 727 mmHg 89%
    06:00 +3°C° 0.2 mm 3 m/S 727 mmHg 91%
    07:00 +3°C° 0.1 mm 3 m/S 727 mmHg 89%
    08:00 +4°C° 0.1 mm 4 m/S 728 mmHg 86%
    09:00 +4°C° 0.1 mm 4 m/S 728 mmHg 84%
    10:00 +5°C° 0.1 mm 4 m/S 728 mmHg 79%
    11:00 +5°C° 0.1 mm 4 m/S 729 mmHg 75%
    12:00 +6°C° 0.1 mm 5 m/S 729 mmHg 71%
    13:00 +5°C° 0.1 mm 5 m/S 729 mmHg 72%
    14:00 +5°C° 0.1 mm 5 m/S 729 mmHg 73%
    15:00 +3°C° 0.1 mm 5 m/S 729 mmHg 73%
    16:00 +2°C° 0 mm 5 m/S 730 mmHg 75%
    17:00 +1°C° 0 mm 4 m/S 730 mmHg 77%
    18:00 +1°C° 0 mm 4 m/S 730 mmHg 78%
    19:00 0°C° 0 mm 4 m/S 731 mmHg 79%
    20:00 +1°C° 0 mm 3 m/S 732 mmHg 79%
    21:00 +1°C° 0 mm 3 m/S 733 mmHg 80%
    22:00 +1°C° 0 mm 3 m/S 733 mmHg 81%
    23:00 0°C° 0 mm 3 m/S 733 mmHg 82%

    24 Februar, Sonntag

    Zeit Temperatur Niederschläge Wind Luftdruck Luftfeuchtigkeit
    00:00 0°C° 0 mm 3 m/S 733 mmHg 83%
    01:00 +1°C° 0 mm 2 m/S 734 mmHg 82%
    02:00 +1°C° 0 mm 2 m/S 734 mmHg 82%
    03:00 +1°C° 0 mm 2 m/S 734 mmHg 82%
    04:00 -1°C° 0 mm 2 m/S 734 mmHg 83%
    05:00 -1°C° 0 mm 2 m/S 734 mmHg 85%
    06:00 0°C° 0 mm 1 m/S 734 mmHg 86%
    07:00 +2°C° 0 mm 1 m/S 735 mmHg 80%
    08:00 +2°C° 0 mm 2 m/S 735 mmHg 73%
    09:00 +4°C° 0 mm 2 m/S 736 mmHg 67%
    10:00 +6°C° 0 mm 1 m/S 736 mmHg 62%
    11:00 +8°C° 0 mm 1 m/S 736 mmHg 57%
    12:00 +10°C° 0 mm 1 m/S 736 mmHg 53%
    13:00 +10°C° 0 mm 1 m/S 735 mmHg 53%
    14:00 +10°C° 0 mm 1 m/S 735 mmHg 53%
    15:00 +10°C° 0 mm 1 m/S 735 mmHg 53%
    16:00 +9°C° 0 mm 1 m/S 734 mmHg 61%
    17:00 +7°C° 0 mm 1 m/S 734 mmHg 69%
    18:00 +5°C° 0 mm 1 m/S 734 mmHg 77%
    19:00 +4°C° 0 mm 1 m/S 734 mmHg 79%
    20:00 +4°C° 0 mm 1 m/S 735 mmHg 80%
    21:00 +3°C° 0 mm 1 m/S 735 mmHg 82%
    22:00 +3°C° 0 mm 1 m/S 734 mmHg 81%
    23:00 +3°C° 0 mm 1 m/S 734 mmHg 81%
    Mehr zeigen